Printer-friendly version

IAU Minor Planet Center

Minor Planet Center

MPEC 2008-K58 : 2008 KZ5

The following Minor Planet Electronic Circular may be linked-to from your own Web pages, but must not otherwise be redistributed electronically.


Read MPEC 2008-K57 Read MPEC 2008-K59


M.P.E.C. 2008-K58                                Issued 2008 May 30, 12:40 UT

     The Minor Planet Electronic Circulars contain information on unusual
         minor planets and routine data on comets.  They are published
   on behalf of Commission 20 of the International Astronomical Union by the
          Minor Planet Center, Smithsonian Astrophysical Observatory,
                          Cambridge, MA 02138, U.S.A.

             Prepared using the Tamkin Foundation Computer Network

                              MPC@CFA.HARVARD.EDU
          URL http://www.cfa.harvard.edu/iau/mpc.html  ISSN 1523-6714

                                   2008 KZ5

Observations:
     K08K05Z* C2008 05 29.22802 16 23 31.01 +04 06 01.4          20.1 V EK058691
     K08K05Z  C2008 05 29.24561 16 23 29.48 +04 06 14.8          20.2 V EK058691
     K08K05Z  C2008 05 29.26318 16 23 28.05 +04 06 28.1          19.7 V EK058691
     K08K05Z  C2008 05 29.30908916 23 23.51 +04 07 00.8          20.0 V EK058H55
     K08K05Z  C2008 05 29.31490016 23 23.04 +04 07 05.3          19.9 V EK058H55
     K08K05Z  C2008 05 29.32070616 23 22.53 +04 07 09.6          20.3 V EK058H55
     K08K05Z 4C2008 05 29.35602 16 23 20.58 +04 07 41.8          19.3 R EK058F65
     K08K05Z  C2008 05 29.35916 16 23 19.48 +04 07 40.7                 EK058291
     K08K05Z 4C2008 05 29.36247 16 23 20.02 +04 07 46.6          19.4 R EK058F65
     K08K05Z  C2008 05 29.36294 16 23 19.15 +04 07 43.4                 EK058291
     K08K05Z  C2008 05 29.36672 16 23 18.81 +04 07 46.4                 EK058291
     K08K05Z 4C2008 05 29.36884 16 23 19.46 +04 07 51.5          19.5 R EK058F65
     K08K05Z  C2008 05 29.37515 16 23 18.10 +04 07 51.6          19.9 R EK058854
     K08K05Z  C2008 05 29.38951 16 23 16.86 +04 08 04.1          19.9 R EK058854
     K08K05Z  C2008 05 29.42617 16 23 13.62 +04 08 30.9                 EK058291
     K08K05Z  C2008 05 29.42991 16 23 13.27 +04 08 34.0                 EK058291
     K08K05Z  C2008 05 29.43369 16 23 12.96 +04 08 36.7                 EK058291
     K08K05Z  C2008 05 30.32922 16 21 59.25 +04 19 45.4          20.0 V EK058G96
     K08K05Z 4C2008 05 30.33514 16 21 59.58 +04 19 53.2          19.7 R EK058F65
     K08K05Z  C2008 05 30.33671 16 21 58.57 +04 19 50.9          20.0 V EK058G96
     K08K05Z 4C2008 05 30.34146 16 21 59.01 +04 19 57.8          19.9 R EK058F65
     K08K05Z  C2008 05 30.34414 16 21 57.92 +04 19 56.3          20.1 V EK058G96
     K08K05Z 4C2008 05 30.34737 16 21 58.48 +04 20 02.3          19.7 R EK058F65
     K08K05Z  C2008 05 30.35164 16 21 57.24 +04 20 02.0          20.0 V EK058G96
     K08K05Z  C2008 05 30.41477 16 21 51.53 +04 20 47.9          20.1 V EK058291
     K08K05Z  C2008 05 30.41846 16 21 51.25 +04 20 51.3          20.4 V EK058291
     K08K05Z  C2008 05 30.42214 16 21 50.91 +04 20 53.9          20.3 V EK058291

Observer details:
291 LPL/Spacewatch II.  Observers R. S. McMillan, T. H. Bressi.  1.8-m f/2.7
    reflector + CCD.
691 Steward Observatory, Kitt Peak.  Observer R. S. McMillan.  0.9-m f/3
    reflector + CCD.
854 Sabino Canyon Observatory, Tucson.  Observer J. E. McGaha.  0.36-m f/10.0
    Schmidt-Cassegrain + CCD.
F65 Haleakala-Faulkes Telescope North.  Observer J. Bedient.  2.0-m
    Ritchey-Chretien + CCD.
G96 Mt. Lemmon Survey.  Observer A. R. Gibbs.  Measurers E. C. Beshore,
    A. Boattini, G. J. Garradd, A. R. Gibbs, A. D. Grauer, R. E. Hill,
    R. A. Kowalski, S. M. Larson, R. H. McNaught.  1.5-m reflector + CCD.
H55 Astronomical Research Observatory, Charleston.  Observer R. Holmes.
    0.61-m f/4.0 astrograph + CCD.

Orbital elements:
2008 KZ5                                            PHA, Earth MOID = 0.0013 AU
Epoch 2008 May 14.0 TT = JDT 2454600.5                  MPC
M 314.89225              (2000.0)            P               Q
n   0.39241841     Peri.  195.82055     +0.91366519     +0.39583987
a   1.8477213      Node   140.45635     -0.35542957     +0.88826474
e   0.4593371      Incl.    8.33943     -0.19719469     +0.23301618
P   2.51           H   20.0           G   0.15           U   9
Residuals in seconds of arc
080529 691  0.6-  0.0     080529 291  0.0   0.2-    080530 F65  0.0   0.1+
080529 691  0.4-  0.1+    080529 291  0.1-  0.0     080530 G96  0.0   0.0
080529 691  1.3+  0.0     080529 F65  0.2-  0.2+    080530 F65  0.0   0.0
080529 H55  0.3-  0.1+    080529 854  0.5+  1.0-    080530 G96  0.3+  0.1-
080529 H55  0.3+  0.2+    080529 854  0.8+  0.7+    080530 F65  0.0   0.1+
080529 H55  0.2+  0.1+    080529 291  0.1+  0.2-    080530 G96  0.3+  0.1+
080529 F65  0.4-  0.2+    080529 291  0.3-  0.1+    080530 291  0.5-  0.5-
080529 291  0.1-  0.0     080529 291  0.0   0.0     080530 291  0.3+  0.3+
080529 F65  0.3-  0.1+    080530 G96  0.1+  0.0     080530 291  0.1+  0.2+

Ephemeris:
2008 KZ5                 a,e,i = 1.85, 0.46, 8                   q = 0.9990
Date    TT    R. A. (2000) Decl.     Delta      r     Elong.  Phase     V
2008 05 24    16 30.10   +02 56.7    0.508    1.490   155.4    16.4    20.3
2008 06 03    16 16.65   +05 02.7    0.447    1.424   151.8    19.7    20.0
2008 06 13    16 00.67   +06 28.6    0.400    1.359   143.7    26.3    19.9
2008 06 23    15 44.56   +06 55.4    0.365    1.295   133.7    34.6    19.8
2008 07 03    15 30.69   +06 12.5    0.335    1.234   123.4    43.5    19.8
2008 07 13    15 20.98   +04 17.2    0.309    1.176   113.7    52.3    19.7
2008 07 23    15 16.20   +01 10.8    0.282    1.123   105.0    60.9    19.7
2008 08 02    15 16.31   -03 12.3    0.253    1.077    97.3    69.2    19.6
2008 08 12    15 21.21   -09 12.0    0.220    1.040    90.8    77.0    19.5
2008 08 22    15 30.87   -17 32.7    0.186    1.014    85.6    83.9    19.3
2008 09 01    15 47.26   -29 40.2    0.152    1.001    82.5    88.9    19.0
2008 09 11    16 20.24   -47 27.3    0.125    1.001    83.7    89.1    18.6
2008 09 21    18 08.67   -69 09.3    0.114    1.014    92.0    81.6    18.2
2008 10 01    23 41.97   -71 18.7    0.124    1.040   105.1    68.3    18.0
2008 10 11    01 34.10   -55 10.3    0.153    1.077   117.5    55.3    18.1
2008 10 21    02 02.92   -41 53.3    0.194    1.123   127.2    44.9    18.4
2008 10 31    02 14.12   -31 49.1    0.245    1.176   134.0    37.4    18.8
2008 11 10    02 20.30   -23 48.2    0.306    1.234   137.8    32.6    19.3
2008 11 20    02 25.50   -17 11.1    0.378    1.296   138.5    30.3    19.8
2008 11 30    02 31.34   -11 34.7    0.463    1.360   136.6    29.9    20.3
2008 12 10    02 38.61   -06 45.6    0.559    1.425   132.8    30.4    20.8
2008 12 20    02 47.49   -02 35.6    0.668    1.491   128.0    31.4    21.3
2008 12 30    02 57.91   +01 02.3    0.788    1.556   122.5    32.2    21.8

Timothy B. Spahr             (C) Copyright 2008 MPC           M.P.E.C. 2008-K58

Read MPEC 2008-K57 Read MPEC 2008-K59


Our Web policy. Index to the CBAT/MPC/ICQ pages.


Valid HTML 4.01!